This is the latest recevied weather packets stored in our database for station/object N3MFL. If no packets are shown the sender has not sent any weather packets the latest 10 day(s).
| Time | Temp. | Humidity | Pressure | Rain* | Wind** | Luminosity | Snow |
|---|---|---|---|---|---|---|---|
| 1777592188 | 11.11° C | 92% | 1007.3 hPa | 0 mm | - | 1 W/m² | - |
| 1777591884 | 11.11° C | 91% | 1007.2 hPa | 0 mm | - | 2 W/m² | - |
| 1777591581 | 11.11° C | 91% | 1007.3 hPa | 0 mm | - | 3 W/m² | - |
| 1777591277 | 11.11° C | 91% | 1007.2 hPa | 0 mm | - | 5 W/m² | - |
| 1777590973 | 11.11° C | 91% | 1007.1 hPa | 0 mm | - | 6 W/m² | - |
| 1777590668 | 11.11° C | 91% | 1007.1 hPa | 0 mm | - | 7 W/m² | - |
| 1777590364 | 11.11° C | 90% | 1007.1 hPa | 0 mm | - | 8 W/m² | - |
| 1777590062 | 11.11° C | 90% | 1007.1 hPa | 0 mm | - | 9 W/m² | - |
| 1777589758 | 11.11° C | 90% | 1007.1 hPa | 0 mm | - | 13 W/m² | - |
| 1777589457 | 11.11° C | 90% | 1007 hPa | 0 mm | - | 12 W/m² | - |
| 1777589152 | 11.11° C | 90% | 1007 hPa | 0 mm | - | 16 W/m² | - |
| 1777588849 | 11.67° C | 90% | 1006.9 hPa | 0 mm | - | 16 W/m² | - |
| 1777588544 | 11.67° C | 90% | 1006.6 hPa | 0 mm | - | 20 W/m² | - |
| 1777588240 | 11.67° C | 89% | 1006.7 hPa | 0 mm | - | 10 W/m² | - |
| 1777587935 | 11.67° C | 89% | 1007 hPa | 0 mm | - | 8 W/m² | - |
| 1777587631 | 11.67° C | 88% | 1006.8 hPa | 0 mm | - | 9 W/m² | - |
| 1777587327 | 11.67° C | 88% | 1006.9 hPa | 0 mm | - | 8 W/m² | - |
| 1777587022 | 11.67° C | 88% | 1006.7 hPa | 0 mm | - | 9 W/m² | - |
| 1777586718 | 11.67° C | 88% | 1006.7 hPa | 0 mm | - | 10 W/m² | - |
| 1777586414 | 11.67° C | 88% | 1006.8 hPa | 0 mm | - | 11 W/m² | - |
| 1777586114 | 11.67° C | 88% | 1006.7 hPa | 0 mm | - | 15 W/m² | - |
| 1777585812 | 11.67° C | 87% | 1006.7 hPa | 0 mm | - | 20 W/m² | - |
| 1777585511 | 11.67° C | 87% | 1006.8 hPa | 0 mm | - | 18 W/m² | - |
| 1777585207 | 11.67° C | 87% | 1006.7 hPa | 0 mm | - | 18 W/m² | - |
| 1777584902 | 11.67° C | 87% | 1006.6 hPa | 0 mm | - | 18 W/m² | - |
* Rain latest hour (hover to see other rain measurements)
** Current wind speed in m/s (hover to see current wind gust speed)